Regional Weather Roundup
Issued by NWS Jackson, KY

Home | Current Version | Previous Version | Graphics & Text | Print | Product List | Glossary On
Versions: 1 2 3 4 5 6 7 8 9 10 11 12 13 14 15 16 17 18 19 20 21 22 23 24 25 26 27 28 29 30 31 32 33 34 35 36 37 38 39 40 41 42 43 44 45 46 47 48 49 50
680
ASUS43 KJKL 030410
RWRJKL

EAST KENTUCKY HOURLY WEATHER ROUNDUP
NATIONAL WEATHER SERVICE JACKSON KY
1100 PM EST FRI DEC 02 2016

NOTE: "FAIR" INDICATES FEW OR NO CLOUDS BELOW 12,000 FEET WITH
NO SIGNIFICANT WEATHER AND/OR OBSTRUCTIONS TO VISIBILITY.

* THESE REPORTS ARE NOT UNDER NWS QUALITY CONTROL AND MAY NOT
  REPORT WEATHER SUCH AS PRECIPITATION AND FOG.

KYZ079-080-083-085-087-088-110-112-115-119-120-030500
...EASTERN KENTUCKY...

CITY           SKY/WX    TMP DP  RH WIND       PRES   REMARKS
JACKSON        CLOUDY    36  29  75 CALM      30.30S
LONDON         CLEAR     34  27  75 CALM      30.31S
SOMERSET*      CLEAR     34  30  86 CALM      30.33S
MONTICELLO*    CLEAR     34  29  82 W7        30.34R WCI  28
WILLIAMSBURG*  CLEAR     36  30  80 NE5       30.32R WCI  32
MIDDLESBORO*   CLEAR     32  29  90 CALM      30.31R
HARLAN APT*    CLEAR     36  30  80 CALM      30.30R
PIKE CO APT*   CLOUDY    36  29  77 CALM      30.31R
MOREHEAD APT*  CLOUDY    37  27  65 CALM      30.33S
ASHLAND*       CLOUDY    39  28  65 W5        30.31S
$$

KYZ035-036-041-042-044-050-067-078-099-030500
...CENTRAL KENTUCKY...

CITY           SKY/WX    TMP DP  RH WIND       PRES   REMARKS
MT STERLING*   CLOUDY    37  30  75 CALM      30.32F
FLEMING/MASON* CLOUDY    37  30  77 CALM      30.32S
DANVILLE*      PTCLDY    28  28 100 CALM      30.33S
LEXINGTON      CLOUDY    39  29  67 NW3       30.32S
FRANKFORT      CLOUDY    40  30  67 CALM      30.31S
LOUISVILLE     CLOUDY    43  28  55 NW7       30.33S
LEBANON*         N/A     36  30  80 CALM      30.33R
GLASGOW*       CLEAR     38  31  76 N3        30.32F
BOWLING GREEN  CLEAR     37  30  75 CALM      30.34S
$$

KYZ091>093-OHZ055-061-077-WVZ005-015-034-035-042-030500
...SOUTHERN OHIO/WEST VIRGINIA...

CITY           SKY/WX    TMP DP  RH WIND       PRES   REMARKS
COVINGTON      CLOUDY    38  32  79 NW6       30.30S WCI  33
COLUMBUS       CLOUDY    38  32  79 W12       30.27R WCI  30
DAYTON         CLOUDY    36  30  79 W8        30.29S WCI  30
WILMINGTON     CLOUDY    37  31  78 W9        30.29R WCI  30
HUNTINGTON     CLOUDY    39  28  64 W5        30.31R
CHARLESTON     CLOUDY    38  28  67 W7        30.30R WCI  33
PINEVILLE*     CLOUDY    36  26  65 MISG      30.32R
BECKLEY        CLOUDY    31  25  78 NW9       30.23S WCI  23
BLUEFIELD      CLOUDY    30  25  81 NW9G20    30.21R WCI  22
LOGAN CO APT*  CLOUDY    36  27  69 CALM      30.28R
$$

VAZ002-007-008-TNZ017-027-036-066-071-030500
...SOUTHWEST VIRGINIA/EAST TENNESSEE...

CITY           SKY/WX    TMP DP  RH WIND       PRES   REMARKS
WISE*          CLOUDY    32  28  86 N5        30.25S WCI  27
JONESVILLE*      N/A     36  28  75 CALM      30.30R
ABINGDON*      CLEAR     38  30  71 N7        30.24R WCI  33
BRISTOL        PTCLDY    41  24  51 NW6       30.25R
MORRISTOWN*    CLEAR     39  30  70 SW5       30.27R
SEVIERVILLE*   CLEAR     34  28  80 CALM      30.28S
KNOXVILLE      PTCLDY    43  30  60 CALM      30.28R
OAK RIDGE      PTCLDY    39  31  72 CALM      30.31R
CROSSVILLE     CLOUDY    40  27  59 NW6       30.29R
NASHVILLE      PTCLDY    43  29  57 NE8       30.32S
$$

...KEY TO REMARKS...
VSB - VISIBILITY IN MILES
WCI - WIND CHILL INDEX
HX  - HEAT INDEX

$$




USA.gov is the U.S. government's official web portal to all federal, state and local government web resources and services.